Weather History for KBYG - April, 2014

Change the Weather History Date:

Wednesday, April 23, 2014

  Actual Average Record
Temperature  
Mean Temperature 48 °F 46 °F  
Max Temperature 61 °F 56 °F 82 °F (2012)
Min Temperature 34 °F 35 °F 8 °F (2013)
Degree Days  
Heating Degree Days 17 19  
Month to date heating degree days 518 527  
Since 1 July heating degree days 6758 6717  
Cooling Degree Days 0 0  
Month to date cooling degree days 0 0  
Year to date cooling degree days 0 0  
Moisture  
Dew Point 28 °F    
Average Humidity 51    
Maximum Humidity 76    
Minimum Humidity 25    
Precipitation  
Precipitation 0.00 in 0.05 in 0.53 in (2010)
Month to date precipitation 0.59 0.79  
Year to date precipitation 1.56 2.48  
Sea Level Pressure  
Sea Level Pressure 29.60 in    
Wind  
Wind Speed 16 mph (NNW)    
Max Wind Speed 37 mph    
Max Gust Speed 44 mph    
Visibility 10 miles    
Events      
T = Trace of Precipitation, MM = Missing Value Source: NWS Daily Summary

Daily Weather History Graph

Daily Weather History Graph

Search for Another Location

Airport or City:

Trip Planner

Search our weather history database for the weather conditions in past years. The results will help you decide how hot, cold, wet, or windy it might be!

Date:

Astronomy

Apr. 23, 2014 Rise Set
Actual Time 6:09 AM MDT 8:01 PM MDT
Civil Twilight 5:38 AM MDT 8:32 PM MDT
Nautical Twilight 5:00 AM MDT 9:10 PM MDT
Astronomical Twilight 4:19 AM MDT 9:52 PM MDT
Moon 2:57 AM MDT (4/23) 1:59 PM MDT (4/23)
Length of Visible Light 14h 53m
Length of Day
13h 51m
Waning Crescent, 34% of the Moon is Illuminated
Apr 23
Waning Crescent
Apr 29
New
May 6
First Quarter
May 14
Full
May 21
Last Quarter

Hourly Weather History & Observations

Time (MDT) Temp. Windchill Dew Point Humidity Pressure Visibility Wind Dir Wind Speed Gust Speed Precip Events Conditions
12:53 AM 53.1 °F - 37.0 °F 55% 29.30 in 10.0 mi SSE 13.8 mph - N/A   Clear
2:53 AM 60.1 °F - 32.0 °F 35% 29.28 in 10.0 mi Variable 5.8 mph 18.4 mph N/A   Clear
3:53 AM 57.9 °F - 30.0 °F 35% 29.27 in 10.0 mi SSE 15.0 mph 23.0 mph N/A   Clear
4:40 AM 54.0 °F - 33.1 °F 45% 29.44 in 10.0 mi WNW 19.6 mph - N/A   Clear
4:49 AM 53.6 °F - 33.8 °F 47% 29.43 in 10.0 mi North 19.6 mph 23.0 mph N/A   Clear
4:53 AM 53.1 °F - 33.1 °F 47% 29.29 in 10.0 mi North 21.9 mph 27.6 mph N/A   Clear
5:06 AM 53.1 °F - 36.0 °F 52% 29.47 in 10.0 mi North 18.4 mph 29.9 mph N/A   Clear
5:53 AM 45.0 °F 36.4 °F 37.0 °F 74% 29.42 in 10.0 mi NNW 23.0 mph 29.9 mph N/A   Clear
6:53 AM 42.1 °F 34.9 °F 35.1 °F 76% 29.44 in 10.0 mi NNW 13.8 mph - N/A   Clear
7:53 AM 44.1 °F 36.8 °F 34.0 °F 68% 29.50 in 10.0 mi North 16.1 mph 26.5 mph N/A   Clear
8:53 AM 46.9 °F - 34.0 °F 61% 29.52 in 10.0 mi North 31.1 mph 38.0 mph N/A   Mostly Cloudy
9:53 AM 39.0 °F 27.0 °F 32.0 °F 76% 29.60 in 10.0 mi NNW 31.1 mph 39.1 mph N/A   Overcast
10:01 AM 37.9 °F 26.6 °F 32.0 °F 79% 29.65 in 10.0 mi NNW 25.3 mph 39.1 mph N/A   Overcast
10:42 AM 41.0 °F 30.9 °F 33.1 °F 73% 29.67 in 10.0 mi NNW 24.2 mph 38.0 mph N/A   Overcast
10:53 AM 41.0 °F 30.5 °F 33.1 °F 73% 29.64 in 10.0 mi NNW 26.5 mph 39.1 mph N/A   Overcast
11:11 AM 41.0 °F 30.2 °F 33.1 °F 73% 29.68 in 10.0 mi North 27.6 mph 38.0 mph N/A   Overcast
11:35 AM 43.0 °F 32.0 °F 30.9 °F 62% 29.68 in 10.0 mi NNW 33.4 mph 41.4 mph N/A   Mostly Cloudy
11:50 AM 42.8 °F 31.6 °F 30.2 °F 61% 29.69 in 10.0 mi NNW 34.5 mph 43.7 mph N/A   Mostly Cloudy
11:53 AM 43.0 °F 32.4 °F 30.0 °F 60% 29.63 in 10.0 mi NNW 31.1 mph 43.7 mph N/A   Mostly Cloudy
12:00 PM 44.1 °F 34.0 °F 30.0 °F 58% 29.70 in 10.0 mi North 29.9 mph 42.6 mph N/A   Scattered Clouds
12:53 PM 46.0 °F 37.0 °F 28.9 °F 51% 29.64 in 10.0 mi NNW 27.6 mph 38.0 mph N/A   Overcast
1:53 PM 46.9 °F - 25.0 °F 42% 29.63 in 10.0 mi North 24.2 mph 35.7 mph N/A   Partly Cloudy
2:53 PM 50.0 °F - 25.0 °F 38% 29.65 in 10.0 mi North 16.1 mph 25.3 mph N/A   Overcast
3:53 PM 48.9 °F - 23.0 °F 36% 29.64 in 10.0 mi North 19.6 mph 26.5 mph N/A   Mostly Cloudy
4:53 PM 51.1 °F - 21.0 °F 31% 29.66 in 10.0 mi North 21.9 mph 27.6 mph N/A   Overcast
5:53 PM 46.0 °F 38.8 °F 24.1 °F 42% 29.74 in 10.0 mi NNW 18.4 mph 27.6 mph N/A   Overcast
6:53 PM 45.0 °F 41.8 °F 21.0 °F 39% 29.76 in 10.0 mi West 5.8 mph - N/A   Mostly Cloudy
7:53 PM 43.0 °F - 23.0 °F 45% 29.80 in 10.0 mi Calm Calm - N/A   Scattered Clouds
8:53 PM 39.9 °F 35.1 °F 21.9 °F 49% 29.83 in 10.0 mi WSW 6.9 mph - N/A   Scattered Clouds
9:53 PM 44.1 °F 36.5 °F 10.9 °F 26% 29.86 in 10.0 mi West 17.3 mph - N/A   Clear
10:53 PM 39.9 °F 36.7 °F 10.9 °F 31% 29.86 in 10.0 mi NE 4.6 mph - N/A   Clear
11:53 PM 37.0 °F 32.4 °F 15.1 °F 41% 29.87 in 10.0 mi ESE 5.8 mph - N/A   Clear